Regional Weather Roundup
Issued by NWS

Home | Current Version | Previous Version | Graphics & Text | Print | Product List | Glossary On
Versions: 1 2 3 4 5 6 7 8 9 10 11 12 13 14 15 16 17 18 19 20 21 22 23 24 25 26 27 28 29 30 31 32 33 34 35 36 37 38 39 40 41 42 43 44 45 46 47 48 49 50
747
ASUS43 KBIS 240402
RWRND

NORTH DAKOTA REGIONAL WEATHER ROUNDUP
NATIONAL WEATHER SERVICE BISMARCK ND
1100 PM CDT WED MAY 23 2018

NOTE: "FAIR" INDICATES FEW OR NO CLOUDS BELOW 12,000 FEET WITH NO
SIGNIFICANT WEATHER AND/OR OBSTRUCTIONS TO VISIBILITY.


NDZ001>003-009>011-017-240500-
NORTHWEST NORTH DAKOTA

CITY           SKY/WX    TMP DP  RH WIND       PRES   REMARKS
WILLISTON      MOCLDY    65  59  81 NE5       29.79S
MINOT          CLEAR     72  64  76 SE8       29.82R
MINOT AFB      PTCLDY    71  63  76 SE7       29.81R
$$

NDZ018>021-031>035-040>046-240500-
SOUTHWEST NORTH DAKOTA

CITY           SKY/WX    TMP DP  RH WIND       PRES   REMARKS
BISMARCK       CLEAR     66  63  90 SE6       29.84R
DICKINSON      MOCLDY    69  60  73 S12       29.83R
GARRISON         N/A     67  63  87 SE3       29.83R
HETTINGER ARPT PTCLDY    66  62  87 S7        29.87R
$$

NDZ004>008-012>016-024-026-027-054-240500-
NORTHEAST NORTH DAKOTA

CITY           SKY/WX    TMP DP  RH WIND       PRES   REMARKS
GRAND FORKS    MOCLDY    74  61  63 SE13      29.92F
GRND FRKS AFB  MOCLDY    73  60  63 SE12      29.92F
DEVILS LAKE    FAIR      69  62  78 SE15      29.90F
$$

NDZ022-023-025-028>030-036>039-047>053-240500-
SOUTHEAST NORTH DAKOTA

CITY           SKY/WX    TMP DP  RH WIND       PRES   REMARKS
FARGO          FAIR      72  61  68 SE13      29.93S
JAMESTOWN      CLOUDY    70  63  78 SE15      29.88F
$$





USA.gov is the U.S. government's official web portal to all federal, state and local government web resources and services.